Time,TemperatureF,DewpointF,PressureIn,WindDirection,WindDirectionDegrees,WindSpeedMPH,WindSpeedGustMPH,Humidity,HourlyPrecipIn,Conditions,Clouds,dailyrainin,SoftwareType,DateUTC
2013-01-18 00:03:00,61.0,54.0,30.06,South,177,3.0,7.0,77,0.00,,,0.57,,2013-01-18 05:03:00,
2013-01-18 00:12:00,61.0,54.0,30.06,South,177,3.0,7.0,77,0.00,,,0.57,,2013-01-18 05:12:00,
2013-01-18 00:22:00,60.0,52.0,30.06,NE,48,6.0,10.0,76,0.00,,,0.57,,2013-01-18 05:22:00,
2013-01-18 00:33:00,60.0,52.0,30.06,SW,217,3.0,7.0,76,0.00,,,0.57,,2013-01-18 05:33:00,
2013-01-18 00:42:00,60.0,52.0,30.06,SW,217,3.0,7.0,76,0.00,,,0.57,,2013-01-18 05:42:00,
2013-01-18 00:53:00,60.0,52.0,30.06,NW,315,4.0,7.0,76,0.00,,,0.56,,2013-01-18 05:53:00,
2013-01-18 01:02:00,60.0,52.0,30.07,WSW,256,3.0,7.0,76,0.00,,,0.43,,2013-01-18 06:02:00,
2013-01-18 01:12:00,60.0,52.0,30.07,WSW,256,3.0,7.0,76,0.00,,,0.43,,2013-01-18 06:12:00,
2013-01-18 01:22:00,59.0,51.0,30.07,West,265,4.0,9.0,76,0.00,,,0.43,,2013-01-18 06:22:00,
2013-01-18 01:33:00,59.0,51.0,30.07,NW,323,3.0,8.0,76,0.00,,,0.39,,2013-01-18 06:33:00,
2013-01-18 01:43:00,59.0,51.0,30.07,NW,323,3.0,8.0,76,0.00,,,0.39,,2013-01-18 06:43:00,
2013-01-18 01:53:00,59.0,52.0,30.07,North,8,4.0,9.0,77,0.00,,,0.36,,2013-01-18 06:53:00,
2013-01-18 02:02:00,58.0,51.0,30.07,West,273,3.0,7.0,78,0.00,,,0.35,,2013-01-18 07:02:00,
2013-01-18 02:12:00,58.0,51.0,30.07,West,273,3.0,7.0,78,0.00,,,0.35,,2013-01-18 07:12:00,
2013-01-18 02:22:00,58.0,51.0,30.07,South,189,3.0,7.0,78,0.00,,,0.35,,2013-01-18 07:22:00,
2013-01-18 02:32:00,58.0,52.0,30.08,SE,125,5.0,10.0,79,0.00,,,0.35,,2013-01-18 07:32:00,
2013-01-18 02:42:00,58.0,52.0,30.08,SE,125,5.0,10.0,79,0.00,,,0.35,,2013-01-18 07:42:00,
2013-01-18 02:52:00,58.0,52.0,30.08,SE,135,2.0,2.0,79,0.00,,,0.34,,2013-01-18 07:52:00,
2013-01-18 03:02:00,58.0,52.0,30.08,SE,135,2.0,2.0,79,0.00,,,0.34,,2013-01-18 08:02:00,
2013-01-18 03:12:00,58.0,52.0,30.08,SE,135,2.0,2.0,79,0.00,,,0.34,,2013-01-18 08:12:00,
2013-01-18 03:22:00,58.0,52.0,30.08,SE,135,2.0,2.0,79,0.00,,,0.34,,2013-01-18 08:22:00,
2013-01-18 03:32:00,58.0,52.0,30.08,SE,135,2.0,2.0,79,0.00,,,0.34,,2013-01-18 08:32:00,
2013-01-18 03:42:00,58.0,52.0,30.08,SE,135,2.0,2.0,79,0.00,,,0.34,,2013-01-18 08:42:00,
2013-01-18 03:53:00,58.0,52.0,30.08,SE,135,2.0,2.0,79,0.00,,,0.32,,2013-01-18 08:53:00,
2013-01-18 04:02:00,58.0,52.0,30.08,SE,135,2.0,2.0,79,0.00,,,0.32,,2013-01-18 09:02:00,
2013-01-18 04:12:00,58.0,52.0,30.08,SE,135,2.0,2.0,79,0.00,,,0.32,,2013-01-18 09:12:00,
2013-01-18 04:22:00,58.0,52.0,30.08,SE,135,2.0,2.0,79,0.00,,,0.32,,2013-01-18 09:22:00,
2013-01-18 04:33:00,58.0,52.0,30.08,SE,135,2.0,2.0,79,0.00,,,0.31,,2013-01-18 09:33:00,
2013-01-18 04:42:00,58.0,52.0,30.08,SE,135,2.0,2.0,79,0.00,,,0.31,,2013-01-18 09:42:00,
2013-01-18 04:53:00,58.0,52.0,30.08,SE,135,2.0,2.0,79,0.00,,,0.31,,2013-01-18 09:53:00,
2013-01-18 05:03:00,58.0,52.0,30.08,SE,135,2.0,2.0,79,0.00,,,0.31,,2013-01-18 10:03:00,
2013-01-18 05:12:00,58.0,52.0,30.08,SE,135,2.0,2.0,79,0.00,,,0.31,,2013-01-18 10:12:00,
2013-01-18 05:22:00,58.0,52.0,30.08,SE,135,2.0,2.0,79,0.00,,,0.29,,2013-01-18 10:22:00,
2013-01-18 05:32:00,58.0,52.0,30.08,SE,135,2.0,2.0,79,0.00,,,0.27,,2013-01-18 10:32:00,
2013-01-18 05:42:00,58.0,52.0,30.08,SE,135,2.0,2.0,79,0.00,,,0.27,,2013-01-18 10:42:00,
2013-01-18 05:53:00,58.0,52.0,30.08,SE,135,2.0,2.0,79,0.00,,,0.21,,2013-01-18 10:53:00,
2013-01-18 06:02:00,58.0,52.0,30.08,SE,135,2.0,2.0,79,0.00,,,0.01,,2013-01-18 11:02:00,
2013-01-18 06:12:00,58.0,52.0,30.08,SE,135,2.0,2.0,79,0.00,,,0.01,,2013-01-18 11:12:00,
2013-01-18 06:23:00,58.0,52.0,30.08,SE,135,2.0,2.0,79,0.00,,,0.00,,2013-01-18 11:23:00,
2013-01-18 06:32:00,58.0,52.0,30.08,SE,135,2.0,2.0,79,0.00,,,0.00,,2013-01-18 11:32:00,
2013-01-18 06:42:00,58.0,52.0,30.08,SE,135,2.0,2.0,79,0.00,,,0.00,,2013-01-18 11:42:00,
2013-01-18 06:53:00,58.0,52.0,30.08,SE,135,2.0,2.0,79,0.00,,,0.00,,2013-01-18 11:53:00,
2013-01-18 07:03:00,58.0,52.0,30.08,SE,135,2.0,2.0,79,0.00,,,0.00,,2013-01-18 12:03:00,
2013-01-18 07:12:00,58.0,52.0,30.08,SE,135,2.0,2.0,79,0.00,,,0.00,,2013-01-18 12:12:00,
2013-01-18 07:23:00,58.0,52.0,30.08,SE,135,2.0,2.0,79,0.00,,,0.00,,2013-01-18 12:23:00,
2013-01-18 07:33:00,58.0,52.0,30.08,SE,135,2.0,2.0,79,0.00,,,0.00,,2013-01-18 12:33:00,
2013-01-18 07:43:00,58.0,52.0,30.08,SE,135,2.0,2.0,79,0.00,,,0.00,,2013-01-18 12:43:00,
2013-01-18 07:53:00,58.0,52.0,30.08,SE,135,2.0,2.0,79,0.00,,,0.00,,2013-01-18 12:53:00,
2013-01-18 08:03:00,58.0,52.0,30.08,SE,135,2.0,2.0,79,0.00,,,0.00,,2013-01-18 13:03:00,
2013-01-18 08:12:00,58.0,52.0,30.08,SE,135,2.0,2.0,79,0.00,,,0.00,,2013-01-18 13:12:00,
2013-01-18 08:23:00,58.0,52.0,30.08,SE,135,2.0,2.0,79,0.00,,,0.00,,2013-01-18 13:23:00,
2013-01-18 08:33:00,53.0,47.0,30.17,NNW,337,3.0,7.0,80,0.00,,,0.00,,2013-01-18 13:33:00,
2013-01-18 08:43:00,53.0,47.0,30.17,NNW,337,3.0,7.0,80,0.00,,,0.00,,2013-01-18 13:43:00,
2013-01-18 08:53:00,54.0,47.0,30.18,SSE,160,3.0,7.0,78,0.00,,,0.00,,2013-01-18 13:53:00,
2013-01-18 09:03:00,55.0,48.0,30.19,NNE,25,5.0,9.0,77,0.00,,,0.00,,2013-01-18 14:03:00,
2013-01-18 09:12:00,55.0,48.0,30.19,NNE,25,5.0,9.0,77,0.00,,,0.00,,2013-01-18 14:12:00,
2013-01-18 09:23:00,56.0,48.0,30.19,South,186,3.0,8.0,75,0.00,,,0.00,,2013-01-18 14:23:00,
2013-01-18 09:33:00,57.0,48.0,30.19,North,349,3.0,6.0,73,0.00,,,0.00,,2013-01-18 14:33:00,
2013-01-18 09:42:00,57.0,48.0,30.19,North,349,3.0,6.0,73,0.00,,,0.00,,2013-01-18 14:42:00,
2013-01-18 09:53:00,59.0,50.0,30.20,North,356,3.0,6.0,71,0.00,,,0.00,,2013-01-18 14:53:00,
2013-01-18 10:03:00,59.0,49.0,30.20,NE,49,5.0,7.0,69,0.00,,,0.00,,2013-01-18 15:03:00,
2013-01-18 10:13:00,59.0,49.0,30.20,NE,49,5.0,7.0,69,0.00,,,0.00,,2013-01-18 15:13:00,
2013-01-18 10:23:00,60.0,49.0,30.20,NNW,340,4.0,8.0,67,0.00,,,0.00,,2013-01-18 15:23:00,
2013-01-18 10:33:00,61.0,50.0,30.20,ENE,70,5.0,7.0,66,0.00,,,0.00,,2013-01-18 15:33:00,
2013-01-18 10:43:00,61.0,50.0,30.20,ENE,70,5.0,7.0,66,0.00,,,0.00,,2013-01-18 15:43:00,
2013-01-18 10:54:00,61.0,49.0,30.20,WSW,254,3.0,8.0,65,0.00,,,0.00,,2013-01-18 15:54:00,
2013-01-18 11:03:00,63.0,51.0,30.20,NE,44,4.0,6.0,64,0.00,,,0.00,,2013-01-18 16:03:00,
2013-01-18 11:12:00,63.0,51.0,30.20,NE,44,4.0,6.0,64,0.00,,,0.00,,2013-01-18 16:12:00,
2013-01-18 11:23:00,64.0,52.0,30.20,ESE,112,2.0,6.0,64,0.00,,,0.00,,2013-01-18 16:23:00,
2013-01-18 11:33:00,65.0,53.0,30.19,ENE,66,3.0,6.0,64,0.00,,,0.00,,2013-01-18 16:33:00,
2013-01-18 11:42:00,65.0,53.0,30.19,ENE,66,3.0,6.0,64,0.00,,,0.00,,2013-01-18 16:42:00,
2013-01-18 11:53:00,65.0,52.0,30.19,NNW,343,5.0,6.0,63,0.00,,,0.00,,2013-01-18 16:53:00,
2013-01-18 12:03:00,67.0,54.0,30.18,North,9,5.0,6.0,62,0.00,,,0.00,,2013-01-18 17:03:00,
2013-01-18 12:13:00,67.0,54.0,30.18,North,9,5.0,6.0,62,0.00,,,0.00,,2013-01-18 17:13:00,
2013-01-18 12:23:00,68.0,54.0,30.19,SE,134,3.0,6.0,62,0.00,,,0.00,,2013-01-18 17:23:00,
2013-01-18 12:33:00,68.0,54.0,30.17,NW,326,2.0,6.0,62,0.00,,,0.00,,2013-01-18 17:33:00,
2013-01-18 12:43:00,68.0,54.0,30.17,NW,326,2.0,6.0,62,0.00,,,0.00,,2013-01-18 17:43:00,
2013-01-18 12:53:00,69.0,55.0,30.16,North,4,2.0,5.0,62,0.00,,,0.00,,2013-01-18 17:53:00,
2013-01-18 13:03:00,71.0,56.0,30.16,NNE,21,5.0,7.0,60,0.00,,,0.00,,2013-01-18 18:03:00,
2013-01-18 13:13:00,71.0,56.0,30.16,NNE,21,5.0,7.0,60,0.00,,,0.00,,2013-01-18 18:13:00,
2013-01-18 13:23:00,71.0,57.0,30.15,North,3,5.0,7.0,62,0.01,,,0.01,,2013-01-18 18:23:00,
2013-01-18 13:33:00,72.0,57.0,30.14,NNE,25,5.0,7.0,60,0.01,,,0.01,,2013-01-18 18:33:00,
2013-01-18 13:43:00,72.0,57.0,30.14,NNE,25,5.0,7.0,60,0.01,,,0.01,,2013-01-18 18:43:00,
2013-01-18 13:53:00,72.0,57.0,30.14,ESE,103,5.0,7.0,60,0.01,,,0.01,,2013-01-18 18:53:00,
2013-01-18 14:03:00,74.0,60.0,30.14,NNE,16,3.0,7.0,61,0.01,,,0.01,,2013-01-18 19:03:00,
2013-01-18 14:13:00,74.0,60.0,30.14,NNE,16,3.0,7.0,61,0.01,,,0.01,,2013-01-18 19:13:00,
2013-01-18 14:23:00,73.0,59.0,30.13,North,355,6.0,8.0,62,0.00,,,0.01,,2013-01-18 19:23:00,
2013-01-18 14:33:00,73.0,59.0,30.13,West,262,6.0,7.0,61,0.00,,,0.01,,2013-01-18 19:33:00,
2013-01-18 14:43:00,73.0,59.0,30.13,West,262,6.0,7.0,61,0.00,,,0.01,,2013-01-18 19:43:00,
2013-01-18 14:53:00,74.0,59.0,30.12,NE,45,5.0,7.0,60,0.00,,,0.01,,2013-01-18 19:53:00,
2013-01-18 15:03:00,72.0,60.0,30.12,North,0,5.0,8.0,66,0.00,,,0.01,,2013-01-18 20:03:00,
2013-01-18 15:13:00,72.0,60.0,30.12,North,0,5.0,8.0,66,0.00,,,0.01,,2013-01-18 20:13:00,
2013-01-18 15:23:00,72.0,60.0,30.12,NE,36,6.0,8.0,67,0.00,,,0.01,,2013-01-18 20:23:00,
2013-01-18 15:33:00,72.0,61.0,30.12,WNW,300,7.0,10.0,68,0.00,,,0.01,,2013-01-18 20:33:00,
2013-01-18 15:43:00,72.0,61.0,30.12,WNW,300,7.0,10.0,68,0.00,,,0.01,,2013-01-18 20:43:00,
2013-01-18 15:53:00,72.0,61.0,30.11,ESE,112,7.0,13.0,68,0.00,,,0.01,,2013-01-18 20:53:00,
2013-01-18 16:03:00,72.0,61.0,30.12,NE,36,7.0,10.0,68,0.00,,,0.01,,2013-01-18 21:03:00,
2013-01-18 16:13:00,72.0,61.0,30.12,NE,36,7.0,10.0,68,0.00,,,0.01,,2013-01-18 21:13:00,
2013-01-18 16:23:00,73.0,62.0,30.12,East,89,6.0,8.0,68,0.00,,,0.01,,2013-01-18 21:23:00,
2013-01-18 16:33:00,72.0,60.0,30.12,ENE,77,6.0,8.0,67,0.00,,,0.01,,2013-01-18 21:33:00,
2013-01-18 16:43:00,72.0,60.0,30.12,ENE,77,6.0,8.0,67,0.00,,,0.01,,2013-01-18 21:43:00,
2013-01-18 16:53:00,73.0,58.0,30.12,North,0,6.0,10.0,60,0.00,,,0.01,,2013-01-18 21:53:00,
2013-01-18 17:03:00,73.0,58.0,30.12,ENE,58,5.0,13.0,60,0.00,,,0.01,,2013-01-18 22:03:00,
2013-01-18 17:12:00,73.0,58.0,30.12,ENE,58,5.0,13.0,60,0.00,,,0.01,,2013-01-18 22:12:00,
2013-01-18 17:23:00,72.0,58.0,30.13,ENE,57,6.0,9.0,61,0.00,,,0.01,,2013-01-18 22:23:00,
2013-01-18 17:33:00,71.0,58.0,30.14,NNE,27,8.0,9.0,63,0.00,,,0.01,,2013-01-18 22:33:00,
2013-01-18 17:43:00,71.0,58.0,30.14,NNE,27,8.0,9.0,63,0.00,,,0.01,,2013-01-18 22:43:00,
2013-01-18 17:53:00,71.0,58.0,30.14,East,87,6.0,12.0,63,0.00,,,0.01,,2013-01-18 22:53:00,
2013-01-18 18:03:00,70.0,56.0,30.14,ENE,64,5.0,7.0,62,0.00,,,0.01,,2013-01-18 23:03:00,
2013-01-18 18:12:00,70.0,56.0,30.14,ENE,64,5.0,7.0,62,0.00,,,0.01,,2013-01-18 23:12:00,
2013-01-18 18:23:00,70.0,57.0,30.15,ESE,112,5.0,12.0,63,0.00,,,0.01,,2013-01-18 23:23:00,
2013-01-18 18:33:00,70.0,57.0,30.15,NNE,22,7.0,10.0,63,0.00,,,0.01,,2013-01-18 23:33:00,
2013-01-18 18:43:00,70.0,57.0,30.15,NNE,22,7.0,10.0,63,0.00,,,0.01,,2013-01-18 23:43:00,
2013-01-18 18:53:00,70.0,55.0,30.15,NE,53,5.0,8.0,60,0.00,,,0.01,,2013-01-18 23:53:00,
2013-01-18 19:02:00,70.0,56.0,30.15,NW,316,5.0,10.0,61,0.00,,,0.01,,2013-01-19 00:02:00,
2013-01-18 19:12:00,70.0,56.0,30.15,NW,316,5.0,10.0,61,0.00,,,0.01,,2013-01-19 00:12:00,
2013-01-18 19:23:00,69.0,55.0,30.15,NE,50,6.0,12.0,62,0.00,,,0.01,,2013-01-19 00:23:00,
2013-01-18 19:33:00,70.0,58.0,30.16,East,80,7.0,10.0,65,0.00,,,0.01,,2013-01-19 00:33:00,
2013-01-18 19:43:00,70.0,58.0,30.16,East,80,7.0,10.0,65,0.00,,,0.01,,2013-01-19 00:43:00,
2013-01-18 19:53:00,70.0,57.0,30.16,East,101,5.0,9.0,64,0.00,,,0.01,,2013-01-19 00:53:00,
2013-01-18 20:02:00,69.0,57.0,30.16,NNE,30,6.0,9.0,66,0.00,,,0.01,,2013-01-19 01:02:00,
2013-01-18 20:12:00,69.0,57.0,30.16,NNE,30,6.0,9.0,66,0.00,,,0.01,,2013-01-19 01:12:00,
2013-01-18 20:22:00,69.0,58.0,30.16,East,93,5.0,8.0,67,0.00,,,0.01,,2013-01-19 01:22:00,
2013-01-18 20:33:00,69.0,56.0,30.17,WSW,251,5.0,8.0,64,0.00,,,0.01,,2013-01-19 01:33:00,
2013-01-18 20:42:00,69.0,56.0,30.17,WSW,251,5.0,8.0,64,0.00,,,0.01,,2013-01-19 01:42:00,
2013-01-18 20:53:00,69.0,57.0,30.17,NE,55,7.0,10.0,66,0.00,,,0.01,,2013-01-19 01:53:00,
2013-01-18 21:02:00,70.0,59.0,30.17,NNE,22,5.0,8.0,67,0.00,,,0.01,,2013-01-19 02:02:00,
2013-01-18 21:12:00,70.0,59.0,30.17,NNE,22,5.0,8.0,67,0.00,,,0.01,,2013-01-19 02:12:00,
2013-01-18 21:23:00,69.0,57.0,30.17,NNW,347,6.0,9.0,66,0.00,,,0.01,,2013-01-19 02:23:00,
2013-01-18 21:33:00,69.0,57.0,30.17,NNE,22,5.0,8.0,66,0.00,,,0.01,,2013-01-19 02:33:00,
2013-01-18 21:43:00,69.0,57.0,30.17,NNE,22,5.0,8.0,66,0.00,,,0.01,,2013-01-19 02:43:00,
2013-01-18 21:53:00,69.0,56.0,30.17,NE,53,6.0,10.0,64,0.00,,,0.01,,2013-01-19 02:53:00,
2013-01-18 22:03:00,69.0,57.0,30.17,NE,36,6.0,9.0,65,0.00,,,0.01,,2013-01-19 03:03:00,
2013-01-18 22:12:00,69.0,57.0,30.17,NE,36,6.0,9.0,65,0.00,,,0.01,,2013-01-19 03:12:00,
2013-01-18 22:22:00,69.0,56.0,30.17,SSE,157,5.0,8.0,64,0.00,,,0.01,,2013-01-19 03:22:00,
2013-01-18 22:33:00,69.0,57.0,30.17,East,80,5.0,12.0,65,0.00,,,0.01,,2013-01-19 03:33:00,
2013-01-18 22:43:00,69.0,57.0,30.17,East,80,5.0,12.0,65,0.00,,,0.01,,2013-01-19 03:43:00,
2013-01-18 22:53:00,69.0,57.0,30.17,NW,316,4.0,6.0,66,0.00,,,0.01,,2013-01-19 03:53:00,
2013-01-18 23:02:00,69.0,58.0,30.17,East,94,2.0,5.0,68,0.00,,,0.01,,2013-01-19 04:02:00,
2013-01-18 23:12:00,69.0,58.0,30.17,East,94,2.0,5.0,68,0.00,,,0.01,,2013-01-19 04:12:00,
2013-01-18 23:22:00,69.0,58.0,30.16,WNW,288,6.0,8.0,69,0.00,,,0.01,,2013-01-19 04:22:00,
2013-01-18 23:32:00,69.0,59.0,30.16,NNE,24,3.0,7.0,71,0.00,,,0.01,,2013-01-19 04:32:00,
2013-01-18 23:42:00,69.0,59.0,30.16,NNE,24,3.0,7.0,71,0.00,,,0.01,,2013-01-19 04:42:00,
2013-01-18 23:53:00,70.0,60.0,30.16,SSW,207,5.0,6.0,71,0.00,,,0.01,,2013-01-19 04:53:00,